#timestamp,LO_Frequency,Hit,StdDev 
1591804815.8,286046994.0,N
1591804835.6,286046994.7,N
1591804855.4,286046994.9,N
1591804875.3,286046996.4,N
1591804895.1,286046993.6,N
1591804915.8,286046995.3,N
1591804935.7,286046993.8,N
1591804955.5,286046996.1,N
1591804975.4,286046991.9,Y
1591804995.2,286046997.7,P
1591805015.0,286046996.8,P
1591805015.9,286046996.8,P
1591805035.8,286046995.4,Y
1591805055.6,286046998.1,P
1591805075.5,286046999.2,N
1591805095.3,286046997.5,P
1591805115.1,286046996.9,Y
1591805135.9,286047000.0,P
1591805155.7,286047002.1,N
1591805175.6,286047004.4,N
1591805195.4,286047001.7,N
1591805215.2,286047003.7,N
1591805235.1,286047004.3,N
1591805236.0,286047004.3,N
1591805255.8,286047001.9,N
1591805275.6,286047002.3,N
1591805295.5,286047002.7,N
1591805315.3,286047000.7,N
1591805335.2,286047002.1,N
1591805355.9,286046999.9,N
1591805375.7,286047000.2,N
1591805395.6,286047001.0,N
1591805415.4,286047001.6,N
1591805435.3,286047004.4,N
1591805455.1,286047004.3,N
1591805456.0,286047004.3,N
1591805475.8,286047001.9,N
1591805495.7,286047002.8,N
1591805515.5,286047001.7,N
1591805535.4,286047003.7,N
1591805555.2,286047004.1,N
1591805575.0,286047004.0,N
1591805575.9,286047004.0,N
1591805595.8,286047007.1,Y
1591805615.6,286047003.2,P
1591805635.5,286047005.5,P
1591805655.3,286047004.2,P
1591805675.1,286046999.8,N
1591805695.9,286047003.8,N
1591805715.7,286047005.7,Y
1591805735.5,286047001.0,P
1591805755.4,286047000.7,N
1591805775.2,286047001.0,N
1591805795.1,286046998.3,N
1591805796.0,286046998.3,N
1591805815.8,286046999.2,N
1591805835.6,286046998.4,N
1591805855.5,286046998.1,N
1591805875.3,286046998.1,N
1591805895.2,286047001.1,N
1591805915.9,286046996.7,N
1591805935.7,286046998.7,N
1591805955.6,286046998.7,N
1591805975.4,286046998.1,N
1591805995.2,286046998.4,N
1591806015.1,286047000.0,N
1591806016.0,286047000.0,N
1591806035.8,286046998.8,N
1591806055.7,286046999.5,N
1591806075.5,286046999.1,N
1591806095.3,286046996.9,N
1591806115.2,286046998.1,N
1591806135.0,286047000.4,N
1591806135.9,286047000.4,N
1591806155.8,286047000.9,N
1591806175.6,286046998.1,N
1591806195.4,286047000.7,N
1591806215.3,286047000.6,N
1591806235.1,286046998.3,N
1591806255.9,286046999.5,N
1591806275.7,286047000.8,N
1591806295.5,286046999.6,N
1591806315.4,286046997.8,N
1591806335.2,286046996.7,N
1591806355.0,286046998.1,N
1591806356.0,286046998.1,N
1591806375.8,286046998.2,N
1591806395.6,286046998.2,N
1591806415.5,286047000.5,N
1591806435.3,286047001.1,N
1591806455.1,286047000.3,N
1591806475.9,286047000.0,N
1591806495.7,286046998.4,N
1591806515.6,286047000.3,N
1591806535.4,286047000.0,N
1591806555.2,286047000.6,N
1591806575.1,286046998.6,N
1591806595.1,286046999.2,N
1591806615.9,286047002.8,N
1591806635.7,286047000.9,N
1591806655.5,286047000.5,N
1591806675.4,286046999.1,N
1591806695.2,286047001.1,N
1591806715.1,286047000.9,N
1591806716.0,286047000.9,N
1591806735.8,286047000.4,N
1591806755.7,286047000.6,N
1591806775.5,286046998.6,N
1591806795.3,286047002.5,N
1591806815.2,286047000.2,N
1591806835.0,286047000.2,N
1591806835.9,286047000.2,N
1591806855.8,286047000.6,N
1591806875.0,286047000.0,N
1591806875.9,286047000.0,N
1591806895.8,286047001.3,N
1591806915.6,286047002.3,N
1591806935.5,286047000.7,N
1591806955.3,286047001.1,N
1591806975.1,286047000.3,N
1591806995.9,286047002.4,N
1591807015.7,286047000.6,N
1591807035.6,286047003.5,Y
1591807055.4,286047000.7,P
1591807075.2,286046999.3,P
1591807095.1,286047000.5,N
1591807096.0,286047000.5,N
1591807115.8,286046999.8,N
1591807135.7,286047001.6,Y
1591807155.5,286047001.8,P
1591807175.3,286047002.8,P
1591807195.2,286047002.7,N
1591807215.0,286047002.2,N
1591807215.9,286047002.2,N
1591807235.8,286047001.5,N
1591807255.6,286047002.2,N
1591807275.5,286046999.8,N
1591807295.3,286046999.8,N
1591807315.1,286047002.5,N
1591807335.9,286047002.8,N
1591807355.7,286047000.5,N
1591807375.5,286047002.0,N
1591807395.4,286047004.4,Y
1591807415.2,286047000.7,P
1591807435.1,286047000.5,N
1591807436.0,286047000.5,N
1591807455.8,286046999.7,N
1591807475.6,286046998.6,N
1591807495.5,286047000.7,N
1591807515.3,286047000.8,N
1591807535.2,286047000.1,N
1591807555.9,286046998.4,N
1591807575.7,286046998.3,N
1591807595.6,286047000.7,N
1591807615.4,286047001.2,N
1591807635.2,286047000.5,N
1591807655.1,286047000.5,N
1591807656.0,286047000.5,N
1591807675.8,286047001.0,N
1591807695.7,286046999.5,N
1591807715.5,286046999.3,N
1591807735.3,286046998.3,N
1591807755.2,286047001.0,N
1591807775.0,286046998.1,N
1591807775.9,286046998.1,N
1591807795.8,286047000.0,N
1591807815.6,286047002.0,N
1591807835.4,286047002.0,N
1591807855.3,286046999.8,N
1591807875.1,286047001.0,N
1591807895.9,286047001.0,N
1591807915.7,286047000.8,N
1591807935.5,286047000.5,N
1591807955.4,286046998.4,N
1591807975.2,286046998.4,N
1591807995.0,286046999.5,N
1591807995.9,286046999.5,N
1591808015.8,286046997.4,N
1591808035.6,286046997.1,N
1591808055.5,286046999.4,N
1591808075.3,286046999.2,N
1591808095.1,286046999.6,N
1591808115.9,286046998.1,N
1591808135.7,286047002.8,N
1591808155.5,286046999.7,N
1591808175.4,286047000.1,N
1591808195.2,286047000.5,N
1591808215.1,286047001.1,N
1591808216.0,286047001.1,N
1591808235.8,286046998.6,N
1591808255.6,286047000.7,N
1591808275.5,286046999.9,N
1591808295.3,286047002.2,N
1591808315.2,286047002.2,N
1591808335.9,286047002.8,N
1591808355.7,286047000.1,N
1591808375.6,286047001.4,N
1591808395.4,286047001.5,N
